ENT4MN EPWR-HEMA

Flight info

Callsign ENT4MN
Flight time N/A
Altitude 37000
Route PEKO1K PEKOT L616 DESEN VALPI PARAK NISVA NIKTI UN127 IMR UN128 RDS UL995 VANZA RASDA A16 CVO L315 HGD V730 SIBRI SIBR1C
Aircraft B38M/M-SDE1E2E3FGHIJ2J3J4J5M1RWXYZ/HB1

Departure

Time 2026-05-09 08:08
Airport Copernicus Wrocław Airport (EPWR)

Arrival

Time N/A
Airport Marsa Alam International Airport (HEMA)
Time Latitude Longitude Altitude Speed Heading
2026-05-09 07:33 51.10945 16.87723 400 ft 0 kts 25°
2026-05-09 07:58 51.10933 16.87714 400 ft 2 kts 25°
2026-05-09 07:58 51.10919 16.87703 400 ft 2 kts 26°
2026-05-09 07:59 51.10906 16.87693 401 ft 2 kts 25°
2026-05-09 07:59 51.10893 16.87684 401 ft 2 kts 355°
2026-05-09 07:59 51.10880 16.87695 401 ft 2 kts 300°
2026-05-09 07:59 51.10875 16.87717 401 ft 2 kts 295°
2026-05-09 08:00 51.10871 16.87730 401 ft 0 kts 298°
2026-05-09 08:02 51.10872 16.87726 401 ft 2 kts 298°
2026-05-09 08:02 51.10901 16.87635 401 ft 16 kts 296°
2026-05-09 08:03 51.10945 16.87452 402 ft 14 kts 253°
2026-05-09 08:03 51.10880 16.87373 403 ft 11 kts 207°
2026-05-09 08:03 51.10813 16.87320 403 ft 11 kts 206°
2026-05-09 08:03 51.10740 16.87264 405 ft 10 kts 206°
2026-05-09 08:04 51.10670 16.87264 406 ft 11 kts 132°
2026-05-09 08:04 51.10617 16.87434 405 ft 25 kts 116°
2026-05-09 08:04 51.10528 16.87726 404 ft 29 kts 116°
2026-05-09 08:04 51.10440 16.88015 403 ft 28 kts 116°
2026-05-09 08:05 51.10355 16.88295 400 ft 27 kts 116°
2026-05-09 08:05 51.10272 16.88563 398 ft 26 kts 115°
2026-05-09 08:05 51.10194 16.88819 397 ft 25 kts 116°
2026-05-09 08:05 51.10119 16.89065 396 ft 24 kts 116°
2026-05-09 08:06 51.10041 16.89317 399 ft 24 kts 116°
2026-05-09 08:06 51.09971 16.89551 399 ft 22 kts 116°
2026-05-09 08:06 51.09931 16.89741 399 ft 14 kts 109°
2026-05-09 08:06 51.09908 16.89753 399 ft 4 kts 289°
2026-05-09 08:07 51.09915 16.89733 399 ft 0 kts 296°
2026-05-09 08:07 51.09920 16.89713 399 ft 9 kts 296°
2026-05-09 08:07 51.10077 16.89209 397 ft 92 kts 295°
2026-05-09 08:08 51.10461 16.87960 404 ft 157 kts 296°
2026-05-09 08:08 51.10772 16.86966 576 ft 177 kts 297°
2026-05-09 08:08 51.10791 16.86906 600 ft 177 kts 297°
2026-05-09 08:08 51.11283 16.85390 1364 ft 177 kts 297°
2026-05-09 08:09 51.11797 16.83717 2237 ft 171 kts 297°
2026-05-09 08:09 51.12343 16.81896 2532 ft 190 kts 297°
2026-05-09 08:09 51.12928 16.79934 2908 ft 207 kts 297°
2026-05-09 08:09 51.13562 16.77817 3372 ft 220 kts 297°
2026-05-09 08:10 51.14254 16.75515 3755 ft 239 kts 297°
2026-05-09 08:10 51.14986 16.73086 4314 ft 251 kts 297°
2026-05-09 08:10 51.15757 16.70527 4855 ft 263 kts 297°
2026-05-09 08:10 51.16546 16.67913 5646 ft 264 kts 297°
2026-05-09 08:11 51.17332 16.65290 6403 ft 267 kts 297°
2026-05-09 08:11 51.18205 16.62700 7174 ft 268 kts 307°
2026-05-09 08:11 51.19558 16.60700 7914 ft 270 kts 331°
2026-05-09 08:11 51.21309 16.59685 8657 ft 273 kts 349°
2026-05-09 08:12 51.25126 16.59927 10011 ft 285 kts 19°
2026-05-09 08:12 51.26892 16.61299 10771 ft 287 kts 27°
2026-05-09 08:12 51.28635 16.62921 11378 ft 293 kts 28°
2026-05-09 08:13 51.30395 16.64559 12052 ft 296 kts 27°
2026-05-09 08:13 51.32141 16.66415 12724 ft 301 kts 37°
2026-05-09 08:13 51.33553 16.68865 13342 ft 309 kts 55°
2026-05-09 08:13 51.34441 16.72057 13953 ft 317 kts 73°
2026-05-09 08:14 51.34807 16.75581 14306 ft 332 kts 86°
2026-05-09 08:14 51.34530 16.79323 14618 ft 348 kts 107°
2026-05-09 08:14 51.33590 16.82947 14883 ft 362 kts 116°
2026-05-09 08:14 51.32452 16.86609 15143 ft 377 kts 117°
2026-05-09 08:15 51.31240 16.90405 15391 ft 392 kts 117°
2026-05-09 08:15 51.30001 16.94313 16003 ft 395 kts 117°
2026-05-09 08:15 51.28766 16.98255 16592 ft 400 kts 116°
2026-05-09 08:15 51.27468 17.02129 17181 ft 403 kts 122°
2026-05-09 08:16 51.25747 17.05710 17768 ft 405 kts 137°
2026-05-09 08:16 51.23497 17.08353 18340 ft 405 kts 154°
2026-05-09 08:16 51.20914 17.09976 18918 ft 404 kts 165°
2026-05-09 08:16 51.18216 17.11198 19484 ft 407 kts 167°
2026-05-09 08:17 51.15463 17.12362 20012 ft 410 kts 167°
2026-05-09 08:17 51.12695 17.13510 20563 ft 413 kts 168°
2026-05-09 08:17 51.09935 17.14652 21084 ft 416 kts 167°
2026-05-09 08:17 51.07108 17.15828 21607 ft 419 kts 167°
2026-05-09 08:18 51.04279 17.17010 22128 ft 422 kts 167°
2026-05-09 08:18 51.01446 17.18200 22656 ft 424 kts 167°
2026-05-09 08:18 50.98619 17.19388 23151 ft 427 kts 167°
2026-05-09 08:18 50.95745 17.20597 23660 ft 429 kts 167°
2026-05-09 08:19 50.92860 17.21811 24088 ft 432 kts 167°
2026-05-09 08:19 50.89948 17.23037 24560 ft 435 kts 167°
2026-05-09 08:19 50.86960 17.24293 25025 ft 438 kts 167°
2026-05-09 08:19 50.84025 17.25527 25471 ft 440 kts 167°
2026-05-09 08:20 50.81079 17.26763 25900 ft 442 kts 167°
2026-05-09 08:20 50.78078 17.28020 26318 ft 445 kts 167°
2026-05-09 08:20 50.75110 17.29261 26734 ft 447 kts 167°
2026-05-09 08:20 50.72087 17.30524 27136 ft 450 kts 167°
2026-05-09 08:21 50.69060 17.31787 27525 ft 453 kts 167°
2026-05-09 08:21 50.66005 17.33060 27960 ft 454 kts 167°
2026-05-09 08:21 50.62935 17.34337 28339 ft 456 kts 167°
2026-05-09 08:21 50.59884 17.35606 28747 ft 457 kts 167°
2026-05-09 08:22 50.56811 17.36881 29132 ft 459 kts 167°
2026-05-09 08:22 50.53687 17.38176 29468 ft 461 kts 167°
2026-05-09 08:22 50.50567 17.39468 29863 ft 462 kts 167°
2026-05-09 08:22 50.47469 17.40749 30187 ft 464 kts 167°
2026-05-09 08:23 50.44331 17.42045 30564 ft 465 kts 167°
2026-05-09 08:23 50.41227 17.43327 31159 ft 460 kts 167°
2026-05-09 08:23 50.38118 17.44695 31471 ft 461 kts 164°
2026-05-09 08:23 50.35071 17.46335 31833 ft 461 kts 161°
2026-05-09 08:24 50.32073 17.48154 32140 ft 462 kts 159°
2026-05-09 08:24 50.29120 17.50120 32482 ft 462 kts 159°
2026-05-09 08:24 50.26129 17.51946 32793 ft 460 kts 163°
2026-05-09 08:24 50.23103 17.53370 33050 ft 458 kts 167°
2026-05-09 08:25 50.20003 17.54568 33269 ft 458 kts 169°
2026-05-09 08:25 50.16891 17.55649 33479 ft 458 kts 170°
2026-05-09 08:25 50.13779 17.56686 33686 ft 458 kts 170°
2026-05-09 08:25 50.10686 17.57710 33865 ft 459 kts 170°
2026-05-09 08:26 50.07562 17.58753 34069 ft 458 kts 170°
2026-05-09 08:26 50.04417 17.59815 34271 ft 459 kts 170°
2026-05-09 08:26 50.01326 17.60872 34509 ft 458 kts 170°
2026-05-09 08:26 49.98178 17.61958 34719 ft 458 kts 170°
2026-05-09 08:27 49.95095 17.63028 34940 ft 457 kts 169°
2026-05-09 08:27 49.91989 17.64111 35144 ft 457 kts 169°
2026-05-09 08:27 49.88896 17.65192 35356 ft 457 kts 170°
2026-05-09 08:27 49.85786 17.66280 35532 ft 457 kts 170°
2026-05-09 08:28 49.82679 17.67367 35735 ft 457 kts 170°
2026-05-09 08:28 49.79604 17.68442 35909 ft 457 kts 170°
2026-05-09 08:28 49.76500 17.69526 36086 ft 457 kts 170°
2026-05-09 08:28 49.73396 17.70610 36212 ft 458 kts 170°
2026-05-09 08:29 49.70292 17.71693 36376 ft 458 kts 170°
2026-05-09 08:29 49.67158 17.72786 36520 ft 458 kts 170°
2026-05-09 08:29 49.64064 17.73863 36652 ft 458 kts 170°
2026-05-09 08:29 49.60981 17.74934 36775 ft 459 kts 170°
2026-05-09 08:30 49.57876 17.76011 36929 ft 458 kts 170°
2026-05-09 08:30 49.54766 17.77089 37055 ft 459 kts 170°
2026-05-09 08:30 49.48544 17.79242 37131 ft 460 kts 170°
2026-05-09 08:31 49.42264 17.81408 37132 ft 459 kts 170°
2026-05-09 08:31 49.36076 17.83537 37133 ft 458 kts 170°
2026-05-09 08:32 49.29866 17.85668 37126 ft 458 kts 170°
2026-05-09 08:33 49.20515 17.88869 37130 ft 458 kts 170°
2026-05-09 08:33 49.14302 17.90988 37128 ft 457 kts 170°
2026-05-09 08:34 49.08118 17.93092 37128 ft 456 kts 170°
2026-05-09 08:34 49.01917 17.95012 37119 ft 455 kts 174°
2026-05-09 08:35 48.95604 17.95933 37127 ft 455 kts 179°
2026-05-09 08:35 48.89304 17.96418 37127 ft 454 kts 180°
2026-05-09 08:36 48.82996 17.96878 37120 ft 454 kts 180°
2026-05-09 08:36 48.76656 17.97382 37115 ft 453 kts 180°
2026-05-09 08:36 48.73521 17.97644 36969 ft 452 kts 180°
2026-05-09 08:37 48.70356 17.97917 37087 ft 452 kts 180°
2026-05-09 08:37 48.64056 17.98468 37077 ft 454 kts 180°
2026-05-09 08:38 48.57724 17.99028 37103 ft 456 kts 179°
2026-05-09 08:38 48.51402 17.99585 37114 ft 456 kts 180°
2026-05-09 08:39 48.45046 18.00145 37120 ft 456 kts 180°
2026-05-09 08:39 48.38753 18.00700 37116 ft 456 kts 180°
2026-05-09 08:40 48.32424 18.01256 37107 ft 455 kts 180°
2026-05-09 08:40 48.26083 18.01814 37104 ft 456 kts 180°
2026-05-09 08:41 48.19774 18.02367 37104 ft 455 kts 180°
2026-05-09 08:41 48.13439 18.02921 37097 ft 455 kts 180°
2026-05-09 08:42 48.07151 18.03469 37099 ft 454 kts 180°
2026-05-09 08:42 48.00830 18.04018 37096 ft 456 kts 180°
2026-05-09 08:43 47.94466 18.04568 37101 ft 456 kts 180°
2026-05-09 08:43 47.88139 18.05113 37100 ft 456 kts 180°
2026-05-09 08:44 47.81781 18.05670 37100 ft 458 kts 180°
2026-05-09 08:44 47.75517 18.07381 37095 ft 465 kts 162°
2026-05-09 08:45 47.69847 18.12103 37100 ft 473 kts 149°
2026-05-09 08:45 47.64507 18.17788 37104 ft 474 kts 146°
2026-05-09 08:46 47.59206 18.23642 37093 ft 474 kts 146°
2026-05-09 08:46 47.53915 18.29424 37103 ft 474 kts 147°
2026-05-09 08:47 47.48619 18.35126 37099 ft 473 kts 147°
2026-05-09 08:47 47.43256 18.40842 37101 ft 474 kts 147°
2026-05-09 08:48 47.37930 18.46493 37103 ft 474 kts 147°
2026-05-09 08:48 47.32560 18.52185 37098 ft 475 kts 147°
2026-05-09 08:49 47.27210 18.57833 37094 ft 475 kts 147°
2026-05-09 08:49 47.21840 18.63491 37095 ft 476 kts 147°
2026-05-09 08:50 47.16463 18.69138 37094 ft 477 kts 148°
2026-05-09 08:50 47.11058 18.74801 37099 ft 476 kts 148°
2026-05-09 08:51 47.05716 18.80386 37086 ft 475 kts 148°
2026-05-09 08:51 47.00335 18.85995 37081 ft 474 kts 148°
2026-05-09 08:52 46.94056 18.92515 37082 ft 477 kts 148°
2026-05-09 08:52 46.89520 18.97213 37078 ft 477 kts 148°
2026-05-09 08:53 46.84139 19.02780 37085 ft 477 kts 148°
2026-05-09 08:53 46.78717 19.08379 37085 ft 477 kts 148°
2026-05-09 08:54 46.73272 19.13987 37085 ft 476 kts 148°
2026-05-09 08:54 46.67867 19.19536 37080 ft 476 kts 147°
2026-05-09 08:55 46.62479 19.25050 37074 ft 476 kts 147°
2026-05-09 08:55 46.57046 19.30602 37080 ft 474 kts 148°
2026-05-09 08:56 46.51657 19.36090 37083 ft 475 kts 147°
2026-05-09 08:56 46.46256 19.41578 37083 ft 475 kts 148°
2026-05-09 08:57 46.40835 19.47072 37078 ft 476 kts 147°
2026-05-09 08:57 46.35424 19.52542 37078 ft 476 kts 147°
2026-05-09 08:58 46.29976 19.58042 37069 ft 476 kts 147°
2026-05-09 08:58 46.24532 19.63524 37063 ft 475 kts 147°
2026-05-09 08:59 46.19101 19.68972 37072 ft 476 kts 148°
2026-05-09 08:59 46.13697 19.74452 37065 ft 476 kts 147°
2026-05-09 09:00 46.08303 19.80034 37065 ft 478 kts 147°
2026-05-09 09:00 46.02010 19.86543 37064 ft 478 kts 147°
2026-05-09 09:01 45.97486 19.91200 37059 ft 479 kts 147°
2026-05-09 09:01 45.92085 19.96740 37060 ft 478 kts 147°
2026-05-09 09:02 45.86683 20.02260 37058 ft 479 kts 147°
2026-05-09 09:02 45.81252 20.07793 37054 ft 477 kts 147°
2026-05-09 09:03 45.75860 20.13278 37059 ft 477 kts 147°
2026-05-09 09:03 45.70441 20.18776 37063 ft 478 kts 147°
2026-05-09 09:04 45.65023 20.24256 37067 ft 477 kts 147°
2026-05-09 09:04 45.59602 20.29724 37066 ft 477 kts 147°
2026-05-09 09:05 45.54211 20.35148 37064 ft 476 kts 147°
2026-05-09 09:05 45.48804 20.40576 37066 ft 477 kts 147°
2026-05-09 09:06 45.43376 20.46007 37063 ft 477 kts 147°
2026-05-09 09:06 45.37948 20.51431 37062 ft 476 kts 147°
2026-05-09 09:07 45.32505 20.56858 37057 ft 477 kts 147°
2026-05-09 09:07 45.27108 20.62228 37049 ft 476 kts 147°
2026-05-09 09:08 45.21669 20.67625 37045 ft 477 kts 148°
2026-05-09 09:08 45.16223 20.73012 37045 ft 477 kts 147°
2026-05-09 09:09 45.10752 20.78412 37052 ft 480 kts 147°
2026-05-09 09:09 45.05292 20.83792 37058 ft 478 kts 147°
2026-05-09 09:10 44.99823 20.89170 37059 ft 478 kts 148°
2026-05-09 09:10 44.94370 20.94514 37056 ft 478 kts 147°
2026-05-09 09:11 44.88910 20.99851 37055 ft 476 kts 147°
2026-05-09 09:11 44.83472 21.05158 37059 ft 477 kts 147°
2026-05-09 09:12 44.78016 21.10471 37056 ft 478 kts 147°
2026-05-09 09:12 44.72540 21.15790 37055 ft 478 kts 147°
2026-05-09 09:13 44.67060 21.21101 37060 ft 477 kts 147°
2026-05-09 09:13 44.61603 21.26375 37063 ft 477 kts 147°
2026-05-09 09:14 44.56124 21.31658 37064 ft 476 kts 147°
2026-05-09 09:14 44.50686 21.36890 37063 ft 477 kts 147°
2026-05-09 09:15 44.45207 21.42148 37058 ft 476 kts 147°
2026-05-09 09:15 44.39725 21.47401 37061 ft 477 kts 147°
2026-05-09 09:16 44.34235 21.52645 37062 ft 477 kts 147°
2026-05-09 09:16 44.26026 21.60466 37066 ft 475 kts 147°
2026-05-09 09:17 44.20556 21.65664 37066 ft 477 kts 148°
2026-05-09 09:17 44.15076 21.70858 37066 ft 477 kts 148°
2026-05-09 09:18 44.09603 21.76031 37065 ft 475 kts 148°
2026-05-09 09:18 44.04087 21.81232 37064 ft 477 kts 148°
2026-05-09 09:19 43.98624 21.86372 37063 ft 476 kts 148°
2026-05-09 09:19 43.93103 21.91560 37059 ft 477 kts 148°
2026-05-09 09:20 43.87593 21.96728 37060 ft 476 kts 148°
2026-05-09 09:20 43.82126 22.01841 37058 ft 476 kts 148°
2026-05-09 09:21 43.76620 22.06976 37062 ft 476 kts 148°
2026-05-09 09:21 43.71143 22.12070 37062 ft 476 kts 148°
2026-05-09 09:22 43.65669 22.17149 37066 ft 476 kts 148°
2026-05-09 09:22 43.60148 22.22264 37066 ft 475 kts 148°
2026-05-09 09:23 43.54694 22.27307 37054 ft 474 kts 148°
2026-05-09 09:23 43.49182 22.32391 37054 ft 474 kts 148°
2026-05-09 09:24 43.43711 22.37427 37057 ft 474 kts 148°
2026-05-09 09:24 43.38269 22.42423 37056 ft 474 kts 148°
2026-05-09 09:25 43.32747 22.47485 37064 ft 473 kts 147°
2026-05-09 09:25 43.27282 22.52482 37063 ft 473 kts 147°
2026-05-09 09:26 43.21817 22.57468 37061 ft 472 kts 148°
2026-05-09 09:26 43.16345 22.62446 37062 ft 471 kts 148°
2026-05-09 09:27 43.10871 22.67418 37064 ft 471 kts 148°
2026-05-09 09:27 43.05429 22.72350 37068 ft 471 kts 148°
2026-05-09 09:28 42.99935 22.77318 37065 ft 471 kts 148°
2026-05-09 09:28 42.94534 22.82291 37064 ft 472 kts 146°
2026-05-09 09:29 42.89247 22.87659 37063 ft 471 kts 144°
2026-05-09 09:29 42.84033 22.93113 37063 ft 471 kts 144°
2026-05-09 09:30 42.78858 22.98481 37059 ft 470 kts 144°
2026-05-09 09:30 42.73609 23.03861 37056 ft 469 kts 144°
2026-05-09 09:31 42.68386 23.09177 37057 ft 471 kts 144°
2026-05-09 09:32 42.60479 23.17186 37051 ft 471 kts 144°
2026-05-09 09:32 42.55222 23.22492 37054 ft 470 kts 144°
2026-05-09 09:33 42.49979 23.27773 37053 ft 470 kts 144°
2026-05-09 09:33 42.44736 23.33043 37055 ft 469 kts 144°
2026-05-09 09:34 42.39471 23.38324 37050 ft 470 kts 144°
2026-05-09 09:34 42.34215 23.43584 37050 ft 470 kts 144°
2026-05-09 09:36 42.12507 23.63040 37053 ft 468 kts 149°
2026-05-09 09:37 42.06976 23.67725 37049 ft 468 kts 149°
2026-05-09 09:37 42.01482 23.72401 37048 ft 469 kts 149°
2026-05-09 09:38 41.95953 23.77115 37052 ft 469 kts 149°
2026-05-09 09:38 41.90438 23.81816 37050 ft 468 kts 149°
2026-05-09 09:39 41.84929 23.86508 37046 ft 467 kts 149°
2026-05-09 09:39 41.78543 23.91936 37050 ft 468 kts 149°
2026-05-09 09:40 41.73929 23.95850 37046 ft 468 kts 149°
2026-05-09 09:40 41.68433 24.00501 37040 ft 467 kts 149°
2026-05-09 09:41 41.62944 24.05136 37037 ft 467 kts 149°
2026-05-09 09:41 41.57440 24.09774 37037 ft 468 kts 149°
2026-05-09 09:42 41.51940 24.14444 37037 ft 468 kts 148°
2026-05-09 09:42 41.46510 24.19279 37040 ft 468 kts 147°
2026-05-09 09:43 41.41128 24.24134 37040 ft 468 kts 147°
2026-05-09 09:43 41.35701 24.29011 37032 ft 468 kts 147°
2026-05-09 09:44 41.30333 24.33800 37025 ft 468 kts 148°
2026-05-09 09:44 41.24923 24.38602 37022 ft 468 kts 148°
2026-05-09 09:45 41.19466 24.43358 37021 ft 468 kts 150°
2026-05-09 09:45 41.13717 24.47459 37017 ft 466 kts 156°
2026-05-09 09:46 41.07824 24.51155 37018 ft 466 kts 157°
2026-05-09 09:46 41.01976 24.54766 37019 ft 465 kts 156°
2026-05-09 09:47 40.96116 24.58421 37018 ft 466 kts 156°
2026-05-09 09:47 40.90268 24.62104 37012 ft 466 kts 156°
2026-05-09 09:48 40.84420 24.65805 37012 ft 466 kts 157°
2026-05-09 09:48 40.78572 24.69508 37008 ft 466 kts 157°
2026-05-09 09:49 40.72715 24.73217 37009 ft 467 kts 157°
2026-05-09 09:49 40.66871 24.76928 37008 ft 468 kts 157°
2026-05-09 09:50 40.61019 24.80626 37008 ft 468 kts 157°
2026-05-09 09:50 40.55144 24.84330 37013 ft 469 kts 157°
2026-05-09 09:51 40.49245 24.88040 37012 ft 469 kts 157°
2026-05-09 09:51 40.43382 24.91719 37015 ft 468 kts 157°
2026-05-09 09:52 40.37497 24.95407 37020 ft 469 kts 157°
2026-05-09 09:52 40.31595 24.99092 37016 ft 469 kts 157°
2026-05-09 09:53 40.25715 25.02757 37025 ft 470 kts 157°
2026-05-09 09:53 40.19821 25.06425 37019 ft 470 kts 157°
2026-05-09 09:54 40.13894 25.10111 37025 ft 470 kts 157°
2026-05-09 09:54 40.07971 25.13788 37028 ft 471 kts 157°
2026-05-09 09:55 40.02076 25.17443 37027 ft 470 kts 158°
2026-05-09 09:55 39.96129 25.21116 37027 ft 471 kts 157°
2026-05-09 09:56 39.90155 25.24578 37032 ft 470 kts 162°
2026-05-09 09:56 39.83973 25.27288 37032 ft 468 kts 166°
2026-05-09 09:57 39.77747 25.29728 37035 ft 470 kts 167°
2026-05-09 09:57 39.71458 25.32191 37033 ft 470 kts 167°
2026-05-09 09:58 39.65219 25.34675 37032 ft 470 kts 166°
2026-05-09 09:58 39.58948 25.37203 37029 ft 471 kts 167°
2026-05-09 09:59 39.52710 25.39731 37028 ft 473 kts 167°
2026-05-09 09:59 39.46418 25.42283 37028 ft 472 kts 167°
2026-05-09 10:00 39.40137 25.44828 37023 ft 473 kts 167°
2026-05-09 10:00 39.33868 25.47362 37020 ft 474 kts 167°
2026-05-09 10:01 39.27565 25.49908 37017 ft 474 kts 167°
2026-05-09 10:01 39.21276 25.52441 37019 ft 474 kts 167°
2026-05-09 10:02 39.14941 25.54985 37019 ft 475 kts 167°
2026-05-09 10:02 39.08630 25.57517 37018 ft 475 kts 167°
2026-05-09 10:03 39.02307 25.60045 37016 ft 477 kts 168°
2026-05-09 10:03 38.95923 25.62596 37020 ft 479 kts 167°
2026-05-09 10:04 38.89600 25.65117 37025 ft 478 kts 168°
2026-05-09 10:04 38.83213 25.67656 37020 ft 478 kts 169°
2026-05-09 10:05 38.76808 25.70202 37022 ft 480 kts 169°
2026-05-09 10:05 38.70457 25.72728 37024 ft 479 kts 169°
2026-05-09 10:06 38.64059 25.75262 37028 ft 481 kts 169°
2026-05-09 10:06 38.57668 25.77786 37036 ft 481 kts 169°
2026-05-09 10:07 38.51292 25.80300 37032 ft 481 kts 169°
2026-05-09 10:07 38.44881 25.82825 37048 ft 483 kts 169°
2026-05-09 10:08 38.38450 25.85356 37051 ft 484 kts 169°
2026-05-09 10:08 38.32026 25.87879 37052 ft 483 kts 169°
2026-05-09 10:09 38.25596 25.90392 37047 ft 485 kts 170°
2026-05-09 10:09 38.19138 25.93105 37047 ft 489 kts 167°
2026-05-09 10:10 38.12759 25.96063 37051 ft 491 kts 167°
2026-05-09 10:10 38.06311 25.99077 37048 ft 491 kts 167°
2026-05-09 10:11 37.99894 26.02047 37056 ft 492 kts 168°
2026-05-09 10:11 37.93434 26.04999 37048 ft 491 kts 168°
2026-05-09 10:12 37.86996 26.07918 37055 ft 492 kts 167°
2026-05-09 10:12 37.80533 26.10841 37052 ft 493 kts 167°
2026-05-09 10:13 37.74054 26.13762 37049 ft 495 kts 167°
2026-05-09 10:13 37.67576 26.16675 37054 ft 494 kts 167°
2026-05-09 10:14 37.61103 26.19581 37048 ft 495 kts 167°
2026-05-09 10:14 37.54620 26.22486 37052 ft 495 kts 168°
2026-05-09 10:15 37.48126 26.25390 37054 ft 495 kts 168°
2026-05-09 10:15 37.41607 26.28303 37052 ft 496 kts 168°
2026-05-09 10:16 37.35117 26.31191 37051 ft 498 kts 168°
2026-05-09 10:16 37.28555 26.34110 37050 ft 497 kts 168°
2026-05-09 10:17 37.21989 26.37033 37052 ft 499 kts 168°
2026-05-09 10:17 37.15445 26.39943 37052 ft 501 kts 168°
2026-05-09 10:17 37.12139 26.41408 36889 ft 501 kts 168°
2026-05-09 10:18 37.08862 26.42863 37151 ft 499 kts 167°
2026-05-09 10:18 37.02266 26.45783 37043 ft 500 kts 168°
2026-05-09 10:19 36.95739 26.48667 37040 ft 500 kts 168°
2026-05-09 10:19 36.89175 26.51561 37046 ft 497 kts 167°
2026-05-09 10:20 36.82591 26.54453 37040 ft 500 kts 168°
2026-05-09 10:20 36.76058 26.57316 37041 ft 500 kts 167°
2026-05-09 10:21 36.69503 26.60179 37047 ft 500 kts 167°
2026-05-09 10:21 36.62912 26.63056 37047 ft 500 kts 167°
2026-05-09 10:22 36.56386 26.65902 37048 ft 499 kts 168°
2026-05-09 10:22 36.49814 26.68764 37048 ft 498 kts 167°
2026-05-09 10:23 36.43248 26.71621 37046 ft 499 kts 167°
2026-05-09 10:23 36.36711 26.74456 37045 ft 498 kts 167°
2026-05-09 10:24 36.30146 26.77290 37043 ft 499 kts 167°
2026-05-09 10:24 36.23564 26.80127 37046 ft 498 kts 167°
2026-05-09 10:25 36.16999 26.82956 37047 ft 499 kts 167°
2026-05-09 10:25 36.10477 26.85770 37048 ft 498 kts 167°
2026-05-09 10:26 36.03882 26.88605 37060 ft 499 kts 167°
2026-05-09 10:26 35.97348 26.91412 37067 ft 498 kts 167°
2026-05-09 10:27 35.90783 26.94224 37063 ft 498 kts 167°
2026-05-09 10:27 35.84248 26.97019 37071 ft 498 kts 167°
2026-05-09 10:28 35.77705 26.99796 37070 ft 496 kts 167°
2026-05-09 10:28 35.71175 27.02540 37072 ft 495 kts 167°
2026-05-09 10:29 35.64634 27.05282 37074 ft 497 kts 167°
2026-05-09 10:29 35.58116 27.08014 37073 ft 495 kts 167°
2026-05-09 10:30 35.51580 27.10746 37077 ft 494 kts 166°
2026-05-09 10:30 35.43965 27.13844 37078 ft 492 kts 169°
2026-05-09 10:31 35.38469 27.15375 37074 ft 485 kts 176°
2026-05-09 10:31 35.31800 27.16353 37076 ft 481 kts 180°